Regional Weather Roundup
Issued by NWS

Home | Current Version | Previous Version | Text Only | Print | Product List | Glossary Off
Versions: 1 2 3 4 5 6 7 8 9 10 11 12 13 14 15 16 17 18 19 20 21 22 23 24 25 26 27 28 29 30 31 32 33 34 35 36 37 38 39 40 41 42 43 44 45 46 47 48 49 50

000
ASUS43 KOAX 310510
RWRNE

WEATHER ROUNDUP FOR NEBRASKA
NATIONAL WEATHER SERVICE OMAHA NE
1200 AM CDT SUN AUG 31 2014

NOTES: SATELLITE DATA IS BEING USED TO AUGMENT CLOUD COVER ABOVE
       12000 FEET.
       "FAIR" INDICATES FEW OR NO CLOUDS BELOW 12,000 FEET WITH NO
       SIGNIFICANT WEATHER AND/OR OBSTRUCTIONS TO VISIBILITY.

  * THESE STATIONS DO NOT REPORT WEATHER SUCH AS RAIN...SNOW OR FOG.

NEZ001>004-019>022-054>056-310600-
NEBRASKA PANHANDLE

CITY           SKY/WX    TMP DP  RH WIND       PRES   REMARKS
SCOTTSBLUFF    CLOUDY    69  51  52 S8        29.86F
ALLIANCE       CLOUDY    68  53  58 SE10      29.85F
CHADRON        MOCLDY    70  55  59 NW13      29.81R
KIMBALL        CLOUDY    64  50  60 SW6       29.93S
SIDNEY         CLOUDY    73  47  39 S7        29.92S
$$

NEZ057>060-069>072-079>082-310600-
SOUTHWEST NEBRASKA

CITY           SKY/WX    TMP DP  RH WIND       PRES   REMARKS
NORTH PLATTE   CLEAR     73  55  53 S15G22    29.80F
IMPERIAL       PTCLDY    73  57  57 SW9G20    29.86R
LEXINGTON      CLEAR     74  60  61 S16G22    29.83S
MCCOOK         PTCLDY    75  54  47 S17G24    29.83F
OGALLALA       MOCLDY    73  53  49 NW7       29.86S
$$

NEZ005>010-023>029-035>040-094-310600-
NORTH CENTRAL NEBRASKA

CITY           SKY/WX    TMP DP  RH WIND       PRES   REMARKS
VALENTINE      MOCLDY    76  63  64 SW13      29.77R
AINSWORTH      PTCLDY    71  64  78 S20       29.76S
BROKEN BOW     CLEAR     68  63  84 SE6       29.82S
O`NEILL        CLEAR     71  67  88 SE12      29.79F
ORD            CLEAR     70  65  84 SE7       29.80S
THEDFORD       PTCLDY    76  61  59 W14G26    29.85R
$$

NEZ041-046>049-061>064-073>077-083>087-310600-
SOUTH CENTRAL NEBRASKA

CITY           SKY/WX    TMP DP  RH WIND       PRES   REMARKS
GRAND ISLAND   CLEAR     72  64  76 S13       29.83F
AURORA         CLEAR     70  65  84 S7        29.84S
HASTINGS       CLEAR     71  61  70 S8        29.85R
HEBRON         CLEAR     70  61  74 SE6       29.85F
HOLDREGE       CLEAR     71  60  68 S12       29.85R
KEARNEY *      CLEAR     70  61  73 S9        29.84S
YORK           CLEAR     68 N/A N/A S7        29.85S
$$

NEZ011>018-030>034-042>045-310600-
NORTHEAST NEBRASKA

CITY           SKY/WX    TMP DP  RH WIND       PRES   REMARKS
NORFOLK        CLEAR     71  63  75 SE10      29.82F
ALBION         CLEAR     68  64  85 SE6       29.82F
BLAIR          CLEAR     70  64  82 SE6       29.86F
FREMONT        CLEAR     71  63  75 SE7       29.85S
TEKAMAH        CLEAR     67  64  90 SE6       29.85S
WAYNE          CLEAR     66  64  91 SE9       29.84F
$$

NEZ050>053-065>068-078-088>093-310600-
SOUTHEAST NEBRASKA

CITY           SKY/WX    TMP DP  RH WIND       PRES   REMARKS
LINCOLN        CLEAR     73  64  73 S6        29.85F
OMAHA EPPLEY   CLEAR     70  64  81 SE5       29.86F
BEATRICE       CLEAR     72  65  80 SE7       29.86S
FALLS CITY     CLEAR     69  66  90 SE6       29.87F
NEBRASKA CITY  CLEAR     69  69 100 S7        29.87S
PLATTSMOUTH    CLEAR     71  65  82 SE6       29.86F
$$

NEZ044-045-051>053-067-310600-
OMAHA AREA

CITY           SKY/WX    TMP DP  RH WIND       PRES   REMARKS
OMAHA EPPLEY   CLEAR     70  64  81 SE5       29.86F
BLAIR          CLEAR     70  64  82 SE6       29.86F
FREMONT        CLEAR     71  63  75 SE7       29.85S
MILLARD        CLEAR     70  65  84 CALM      29.85F
OFFUTT AFB     CLEAR     69  69  99 E6        29.85F
PLATTSMOUTH    CLEAR     71  65  82 SE6       29.86F
WAHOO          FAIR      66  63  87 SE6       29.85S
$$


USA.gov is the U.S. government's official web portal to all federal, state and local government web resources and services.